Погода в Чэнду

Китай     30°39′51″N   104°04′31″E
темп.,
°C
ветер,
м/с
пор.,
м/с
влажн.,
%
обл.,
%
осадки,
мм/ч
давл.,
гПа
погр.,
м
1 августа, вс
вс123:00+28юз11772 0.0 100027
02:00+26сз11790 0.0 99921
05:00+24с11760 0.0 99921
08:00+26ссз12690 0.0 1001158
11:00+33вюв11530 0.0 1001903
14:00+36ююз22390 0.0 9981770
17:00+36ю22390 0.0 9961745
20:00+30ю24590 0.0 997107
2 августа, пн
пн223:00+28зюз12700 0.0 100063
02:00+26з12720 0.0 100059
05:00+24зсз22590 0.0 100041
08:00+26сз22480 0.0 1002130
11:00+32ююз12420 0.0 1001690
14:00+36ююз32370 0.0 9991902
17:00+35ююз33360 0.0 9981788
20:00+30ююз24560 0.0 999142
3 августа, вт
вт323:00+27з22660 0.0 100160
02:00+25зсз236412 0.0 100166
05:00+24ссз22574 0.0 100135
08:00+26с235020 0.0 1003153
11:00+32св11435 0.0 1003770
14:00+35всв233910 0.0 10012167
17:00+34юв2248100 0.0 10001411
20:00+28с356925 0.7 100298
4 августа, ср
ср423:00+26ссз22810 0.8 100444
02:00+25зсз22775 1.1 100443
05:00+24зсз22695 0.0 100329
08:00+27зсз22556 0.0 1005126
11:00+34зюз11413 0.0 1004806
14:00+36ююв334187 0.0 10012416
17:00+33св125176 0.1 1000541
20:00+28сз22744 0.9 100129
5 августа, чт
чт523:00+26сз24790 1.3 100274
02:00+23з37949 3.9 1002157
05:00+24з118670 0.0 100113
08:00+26зсз127812 0.1 1002124
11:00+33зюз01504 0.1 1001779
14:00+36юв224381 0.1 9982360
17:00+31зюз125990 0.2 998355
20:00+26сз238172 2.4 99985